Location: Northcutt
(34.7304°N, 84.4305°W)
Time: 10:42:47
(UTC+00:00)

A-11 Canister half - Pass Details

Date: 06 October 2022
Orbit: 1524 x 1685 km, 47.3° (Epoch: 30 November)

Event Time Altitude Azimuth Distance (km) Brightness Sun altitude
Rises 22:09:08 0° 279° (W) 4,670 12.8 12.4°
Reaches altitude 10° 22:12:29 10° 287° (WNW) 3,690 12.2 11.7°
Maximum altitude 22:21:01 39° 354° (N) 2,173 9.9 10.0°
Drops below altitude 10° 22:29:43 10° 61° (ENE) 3,759 10.5 8.3°
Sets 22:33:10 0° 69° (ENE) 4,766 10.9 7.6°
